SEIBRANZ Weather Reports


Display with metric or nautical units.
time (UTC)temp
F
wind
direction
speed
MPH
gust
MPH
rain 1hr
in
rain 24hr
in
rain mn
in
humidity
%
barometer
mb
20260507110210 53 217 14.0 0.0 0.00 0.00 0.06 82 1014.0
20260507103216 50 215 15.0 0.0 0.00 0.00 0.06 88 1014.4
20260507100212 49 208 12.0 0.0 0.00 0.00 0.06 87 1014.4
20260507093211 48 236 11.0 0.0 0.00 0.00 0.06 90 1014.1
20260507090211 49 233 15.0 0.0 0.00 0.00 0.06 89 1013.8
20260507083212 47 221 15.0 0.0 0.00 0.00 0.06 92 1013.6
20260507080211 46 228 15.0 0.0 0.00 0.00 0.05 93 1013.4
20260507073212 46 232 14.0 0.0 0.00 0.00 0.05 93 1013.2
20260507070212 45 210 15.0 0.0 0.00 0.00 0.04 93 1013.0
20260507063211 45 219 14.0 0.0 0.00 0.00 0.03 92 1012.6
20260507060211 46 240 16.0 0.0 0.00 0.00 0.01 92 1012.5
20260507053211 45 218 14.0 0.0 0.00 0.00 0.01 92 1012.3
20260507050213 45 229 14.0 0.0 0.00 0.00 0.01 92 1011.9
20260507043211 44 202 13.0 0.0 0.00 0.00 0.01 92 1011.6
20260507040216 44 184 13.0 0.0 0.00 0.00 0.00 92 1011.2
20260507033211 43 221 10.0 0.0 0.00 0.00 0.00 92 1011.0
20260507030211 44 229 13.0 0.0 0.00 0.00 0.00 91 1010.9
20260507023211 44 205 16.0 0.0 0.00 0.00 0.00 91 1011.0
20260507020211 44 254 15.0 0.0 0.00 0.00 0.00 93 1010.9
20260507013212 43 211 11.0 0.0 0.00 0.00 0.00 94 1010.7
20260507010211 42 187 4.0 0.0 0.00 0.00 0.00 93 1010.6
20260507003209 42 217 5.0 0.0 0.00 0.00 0.00 93 1010.3
20260507000209 43 193 6.0 0.0 0.00 0.00 0.00 93 1010.4
20260506233209 42 182 7.0 0.0 0.00 0.00 0.00 92 1010.4
20260506230209 43 221 8.0 0.0 0.00 0.00 0.00 92 1010.1
20260506223209 45 211 10.0 0.0 0.00 0.00 0.00 91 1010.1
20260506213209 45 173 14.0 0.0 0.00 0.00 0.01 90 1009.8
20260506210210 45 216 6.0 0.0 0.00 0.00 0.01 91 1009.7
20260506203210 46 211 11.0 0.0 0.00 0.00 0.01 90 1009.6
20260506200210 46 186 14.0 0.0 0.00 0.00 0.01 91 1009.3
20260506193215 47 204 11.0 0.0 0.00 0.00 0.01 89 1009.2
20260506190211 47 213 12.0 0.0 0.00 0.00 0.01 90 1008.7
20260506183209 46 225 16.0 0.0 0.00 0.00 0.01 89 1008.2
20260506180216 48 188 12.0 0.0 0.00 0.00 0.01 89 1007.8
20260506173210 48 257 20.0 0.0 0.00 0.00 0.01 88 1008.0
20260506170215 48 209 18.0 0.0 0.00 0.00 0.01 88 1007.4
20260506163210 48 210 18.0 0.0 0.00 0.00 0.01 87 1007.2
20260506160210 48 214 22.0 0.0 0.00 0.00 0.01 87 1007.1
20260506153210 47 231 32.0 0.0 0.00 0.00 0.01 89 1006.5
20260506150210 49 171 30.0 0.0 0.00 0.00 0.01 90 1005.6
20260506143210 57 209 10.0 0.0 0.00 0.00 0.00 78 1004.6
20260506140210 60 144 9.0 0.0 0.00 0.00 0.00 72 1004.3
20260506133211 56 42 6.0 0.0 0.00 0.00 0.00 82 1004.1
20260506130211 57 139 10.0 0.0 0.00 0.00 0.00 73 1005.1
20260506123210 59 98 7.0 0.0 0.00 0.00 0.00 65 1004.7
20260506120210 59 42 7.0 0.0 0.00 0.00 0.00 69 1004.4
20260506113217 58 65 10.0 0.0 0.00 0.00 0.00 70 1004.3